EW4676 Weather Reports


Display with metric or nautical units.
time (UTC)temp
F
wind
direction
speed
MPH
gust
MPH
rain 1hr
in
rain 24hr
in
rain mn
in
humidity
%
barometer
mb
20260504025545 70 152 5.0 13.0 0.00 0.00 0.00 48 1015.4
20260504025036 71 202 5.0 14.0 0.00 0.00 0.00 48 1015.4
20260504024525 71 187 6.0 14.0 0.00 0.00 0.00 47 1015.3
20260504024017 71 146 6.0 14.0 0.00 0.00 0.00 47 1015.3
20260504023517 71 142 6.0 13.0 0.00 0.00 0.00 47 1015.3
20260504023057 71 192 6.0 12.0 0.00 0.00 0.00 45 1015.3
20260504023010 71 247 6.0 15.0 0.00 0.00 0.00 46 1015.3
20260504022951 72 207 6.0 13.0 0.00 0.00 0.00 45 1015.3
20260504021439 72 168 5.0 13.0 0.00 0.00 0.00 44 1015.3
20260504020929 72 168 5.0 12.0 0.00 0.00 0.00 43 1015.4
20260504020415 72 154 6.0 12.0 0.00 0.00 0.00 43 1015.3
20260504015858 72 202 6.0 13.0 0.00 0.00 0.00 42 1015.3
20260504015850 73 188 5.0 13.0 0.00 0.00 0.00 41 1015.3
20260504014844 73 157 5.0 12.0 0.00 0.00 0.00 41 1015.2
20260504014335 73 174 5.0 17.0 0.00 0.00 0.00 40 1015.2
20260504014329 73 178 7.0 17.0 0.00 0.00 0.00 39 1015.2
20260504013320 73 226 7.0 17.0 0.00 0.00 0.00 39 1015.0
20260504012812 74 199 7.0 17.0 0.00 0.00 0.00 39 1015.1
20260504012310 74 164 7.0 15.0 0.00 0.00 0.00 39 1015.1
20260504011807 74 158 7.0 15.0 0.00 0.00 0.00 38 1015.0
20260504011305 74 161 7.0 15.0 0.00 0.00 0.00 38 1014.9
20260504010800 74 146 7.0 17.0 0.00 0.00 0.00 38 1015.0
20260504010255 75 153 7.0 17.0 0.00 0.00 0.00 38 1015.0
20260504005750 75 191 6.0 15.0 0.00 0.00 0.00 37 1015.0
20260504005745 75 199 7.0 18.0 0.00 0.00 0.00 37 1015.0
20260504004738 75 188 5.0 18.0 0.00 0.00 0.00 36 1015.0
20260504004235 76 180 6.0 16.0 0.00 0.00 0.00 37 1015.0
20260504003733 76 203 7.0 16.0 0.00 0.00 0.00 36 1015.0
20260504003728 76 159 7.0 19.0 0.00 0.00 0.00 36 1015.0
20260504002721 76 157 6.0 19.0 0.00 0.00 0.00 35 1015.0
20260504002214 77 159 5.0 15.0 0.00 0.00 0.00 36 1015.1
20260504001712 77 198 7.0 19.0 0.00 0.00 0.00 35 1015.1
20260504001207 77 188 8.0 17.0 0.00 0.00 0.00 34 1015.2
20260504001202 77 172 8.0 19.0 0.00 0.00 0.00 34 1015.2
20260504000812 77 142 7.0 17.0 0.00 0.00 0.00 34 1015.2
20260503235652 78 132 7.0 16.0 0.00 0.00 0.00 34 1015.2
20260503235144 78 164 7.0 16.0 0.00 0.00 0.00 34 1015.2
20260503234638 78 215 6.0 16.0 0.00 0.00 0.00 34 1015.2
20260503234128 78 183 6.0 16.0 0.00 0.00 0.00 35 1015.2
20260503233618 78 131 9.0 17.0 0.00 0.00 0.00 34 1015.3
20260503233610 78 207 9.0 17.0 0.00 0.00 0.00 33 1015.4
20260503232603 78 204 8.0 20.0 0.00 0.00 0.00 34 1015.4
20260503232053 79 183 8.0 17.0 0.00 0.00 0.00 35 1015.5
20260503231548 79 193 8.0 17.0 0.00 0.00 0.00 34 1015.4
20260503231038 78 187 6.0 15.0 0.00 0.00 0.00 34 1015.5
20260503230528 78 197 5.0 15.0 0.00 0.00 0.00 34 1015.5
20260503230013 79 222 5.0 14.0 0.00 0.00 0.00 33 1015.5
20260503225504 79 207 5.0 13.0 0.00 0.00 0.00 34 1015.6
20260503224947 79 174 6.0 14.0 0.00 0.00 0.00 33 1015.6
20260503224437 79 152 7.0 15.0 0.00 0.00 0.00 34 1015.6
20260503223926 79 169 7.0 15.0 0.00 0.00 0.00 32 1015.6
20260503223416 80 216 7.0 13.0 0.00 0.00 0.00 33 1015.6
20260503222856 80 163 6.0 17.0 0.00 0.00 0.00 31 1015.6
20260503222348 80 170 4.0 13.0 0.00 0.00 0.00 32 1015.7
20260503221837 80 200 5.0 14.0 0.00 0.00 0.00 33 1015.8
20260503221817 80 262 5.0 16.0 0.00 0.00 0.00 34 1015.9
20260503221421 80 208 5.0 11.0 0.00 0.00 0.00 32 1015.8
20260503220758 80 205 7.0 17.0 0.00 0.00 0.00 32 1015.9
20260503215748 80 199 7.0 17.0 0.00 0.00 0.00 31 1016.1
20260503215238 82 195 6.0 12.0 0.00 0.00 0.00 33 1016.2
20260503214728 82 246 6.0 13.0 0.00 0.00 0.00 33 1016.2
20260503214218 82 253 7.0 19.0 0.00 0.00 0.00 31 1016.3
20260503213708 81 171 8.0 19.0 0.00 0.00 0.00 31 1016.4
20260503213158 82 176 7.0 18.0 0.00 0.00 0.00 31 1016.4
20260503212658 82 303 6.0 15.0 0.00 0.00 0.00 31 1016.5
20260503212149 83 175 6.0 15.0 0.00 0.00 0.00 31 1016.6
20260503211638 83 256 5.0 13.0 0.00 0.00 0.00 31 1016.8
20260503211129 82 267 5.0 13.0 0.00 0.00 0.00 32 1016.7
20260503210610 82 164 5.0 13.0 0.00 0.00 0.00 30 1016.9
20260503210052 82 209 5.0 12.0 0.00 0.00 0.00 32 1017.0
20260503205543 82 201 6.0 18.0 0.00 0.00 0.00 31 1017.1
20260503205032 83 181 7.0 18.0 0.00 0.00 0.00 32 1017.2
20260503204522 83 193 6.0 16.0 0.00 0.00 0.00 31 1017.2
20260503204012 83 151 5.0 14.0 0.00 0.00 0.00 30 1017.3
20260503203502 83 195 6.0 15.0 0.00 0.00 0.00 33 1017.5
20260503202952 83 156 6.0 15.0 0.00 0.00 0.00 30 1017.6
20260503202442 83 247 4.0 12.0 0.00 0.00 0.00 31 1017.6
20260503201930 83 238 3.0 10.0 0.00 0.00 0.00 33 1017.8
20260503201921 83 252 3.0 15.0 0.00 0.00 0.00 34 1017.8
20260503200903 82 272 6.0 16.0 0.00 0.00 0.00 33 1017.9
20260503200404 83 280 7.0 18.0 0.00 0.00 0.00 31 1017.9
20260503195854 83 230 5.0 18.0 0.00 0.00 0.00 27 1017.9
20260503195344 84 305 4.0 13.0 0.00 0.00 0.00 34 1018.0
20260503194834 82 207 5.0 11.0 0.00 0.00 0.00 33 1018.1
20260503194825 82 249 5.0 11.0 0.00 0.00 0.00 34 1018.2
20260503193814 82 257 4.0 12.0 0.00 0.00 0.00 34 1018.3
20260503193302 81 248 4.0 12.0 0.00 0.00 0.00 32 1018.4
20260503192744 82 253 4.0 17.0 0.00 0.00 0.00 35 1018.5
20260503192226 83 297 4.0 17.0 0.00 0.00 0.00 32 1018.5
20260503191716 83 240 3.0 11.0 0.00 0.00 0.00 34 1018.7
20260503191208 82 225 3.0 13.0 0.00 0.00 0.00 32 1018.7
20260503191203 83 222 5.0 15.0 0.00 0.00 0.00 36 1018.8
20260503190806 83 249 5.0 14.0 0.00 0.00 0.00 32 1018.8
20260503185705 82 203 5.0 15.0 0.00 0.00 0.00 32 1019.0
20260503185659 82 202 5.0 13.0 0.00 0.00 0.00 34 1019.0
20260503184658 82 179 5.0 12.0 0.00 0.00 0.00 33 1019.0
20260503184148 82 136 5.0 12.0 0.00 0.00 0.00 36 1019.1
20260503184140 82 262 4.0 10.0 0.00 0.00 0.00 35 1019.2
20260503183128 82 200 4.0 10.0 0.00 0.00 0.00 35 1019.2
20260503182618 82 256 4.0 10.0 0.00 0.00 0.00 37 1019.4
20260503182108 81 239 4.0 14.0 0.00 0.00 0.00 36 1019.4
20260503181558 81 262 4.0 14.0 0.00 0.00 0.00 37 1019.7
20260503181049 81 262 5.0 15.0 0.00 0.00 0.00 37 1019.6
20260503181031 81 253 5.0 13.0 0.00 0.00 0.00 38 1019.9
20260503180635 81 209 5.0 15.0 0.00 0.00 0.00 38 1019.8
20260503175518 80 253 5.0 14.0 0.00 0.00 0.00 38 1019.9
20260503175008 80 279 5.0 14.0 0.00 0.00 0.00 38 1020.0
20260503175000 80 232 4.0 10.0 0.00 0.00 0.00 40 1020.2
20260503174451 80 228 4.0 12.0 0.00 0.00 0.00 40 1020.3
20260503173440 80 210 4.0 12.0 0.00 0.00 0.00 41 1020.3
20260503172930 80 253 4.0 11.0 0.00 0.00 0.00 41 1020.4
20260503172418 79 222 5.0 12.0 0.00 0.00 0.00 44 1020.5
20260503172409 79 183 4.0 12.0 0.00 0.00 0.00 41 1020.6
20260503171359 79 234 4.0 11.0 0.00 0.00 0.00 43 1020.7
20260503170848 79 247 5.0 11.0 0.00 0.00 0.00 43 1020.8
20260503170341 78 167 5.0 10.0 0.00 0.00 0.00 44 1020.8
20260503150625 71 202 4.0 11.0 0.00 0.00 0.00 52 1021.4
20260503150114 71 280 4.0 11.0 0.00 0.00 0.00 55 1021.4
20260503130310 58 224 2.0 6.0 0.00 0.00 0.00 70 1020.8
20260503130301 58 224 1.0 6.0 0.00 0.00 0.00 70 1020.8
20260503120110 56 204 1.0 4.0 0.00 0.00 0.00 69 1020.3
20260503110421 56 195 2.0 6.0 0.00 0.00 0.00 69 1019.8
20260503100253 57 216 0.0 4.0 0.00 0.00 0.00 68 1019.8
20260503081435 59 214 2.0 4.0 0.00 0.00 0.00 63 1019.4
20260503080917 59 201 1.0 4.0 0.00 0.00 0.00 63 1019.5
20260503080908 59 226 1.0 4.0 0.00 0.00 0.00 63 1019.5
20260503072759 60 209 2.0 6.0 0.00 0.00 0.00 62 1019.8
20260503072249 60 233 2.0 6.0 0.00 0.00 0.00 61 1019.8
20260503071733 60 195 2.0 7.0 0.00 0.00 0.00 61 1019.8
20260503071229 60 213 2.0 7.0 0.00 0.00 0.00 61 1019.8
20260503070723 60 193 1.0 4.0 0.00 0.00 0.00 61 1020.0
20260503070217 60 219 1.0 4.0 0.00 0.00 0.00 60 1020.0
20260503070212 60 214 2.0 7.0 0.00 0.00 0.00 60 1020.0
20260503060213 61 188 3.0 8.0 0.00 0.00 0.00 59 1019.9
20260503055104 62 218 3.0 8.0 0.00 0.00 0.00 58 1019.8
20260503055056 62 210 3.0 9.0 0.00 0.00 0.00 57 1019.8
20260503054051 62 169 3.0 9.0 0.00 0.00 0.00 57 1019.8
20260503053547 62 180 3.0 7.0 0.00 0.00 0.00 56 1019.7
20260503053036 62 205 3.0 7.0 0.00 0.00 0.00 56 1019.7
20260503052531 62 186 3.0 7.0 0.00 0.00 0.00 56 1019.7
20260503052028 63 225 3.0 6.0 0.00 0.00 0.00 56 1019.6
20260503052022 63 205 3.0 7.0 0.00 0.00 0.00 55 1019.6
20260503051013 63 176 4.0 9.0 0.00 0.00 0.00 55 1019.5
20260503050602 63 197 3.0 7.0 0.00 0.00 0.00 54 1019.5
20260503050508 63 193 4.0 9.0 0.00 0.00 0.00 54 1019.6
20260503050457 63 188 3.0 6.0 0.00 0.00 0.00 54 1019.6
20260503044945 64 178 3.0 6.0 0.00 0.00 0.00 54 1019.5
20260503044435 64 214 3.0 7.0 0.00 0.00 0.00 54 1019.5
20260503043925 64 185 3.0 7.0 0.00 0.00 0.00 53 1019.5
20260503043415 64 180 2.0 6.0 0.00 0.00 0.00 54 1019.5
20260503042905 64 204 2.0 6.0 0.00 0.00 0.00 53 1019.5
20260503042355 65 207 2.0 5.0 0.00 0.00 0.00 52 1019.5
20260503041844 65 204 2.0 7.0 0.00 0.00 0.00 51 1019.5
20260503041836 65 188 3.0 7.0 0.00 0.00 0.00 51 1019.6
20260503040826 65 222 3.0 7.0 0.00 0.00 0.00 50 1019.5
20260503040315 65 184 3.0 7.0 0.00 0.00 0.00 50 1019.5
20260503035805 65 196 3.0 7.0 0.00 0.00 0.00 49 1019.5
20260503035255 65 188 4.0 7.0 0.00 0.00 0.00 49 1019.5
20260503034745 65 188 3.0 8.0 0.00 0.00 0.00 48 1019.6
20260503034227 66 209 3.0 8.0 0.00 0.00 0.00 47 1019.6
20260503033717 66 186 3.0 7.0 0.00 0.00 0.00 47 1019.6
20260503033207 66 186 3.0 9.0 0.00 0.00 0.00 47 1019.6
20260503033158 66 193 3.0 9.0 0.00 0.00 0.00 46 1019.5
20260503032148 66 198 2.0 6.0 0.00 0.00 0.00 46 1019.5
20260503031637 66 195 2.0 4.0 0.00 0.00 0.00 46 1019.5
20260503031134 66 186 3.0 6.0 0.00 0.00 0.00 46 1019.4
20260503030637 67 184 2.0 4.0 0.00 0.00 0.00 46 1019.3
20260503030632 66 203 2.0 6.0 0.00 0.00 0.00 46 1019.3